Cloud_Cover
0 0 3 0 5 5 5 5 100 92 9 100 70 100 100 100 100 100 80 18 25 86 75 100 100 71 17 0 4 0 0 0 0 4 0 5 5 0 0 0 0 2 1 0 0 0 0 0 0
5 0 0 5 3 26 11 5 100 85 20 62 25 53 75 99 100 100 88 92 100 87 97 100 93 100 100 67 29 1 0 0 0 0 0 0 1 1 0 0 0 0 0 0 0 0 0 0 0
82 2 0 4 5 14 97 28 99 68 6 22 95 66 45 40 98 98 91 100 100 97 100 100 97 95 100 97 100 19 5 0 0 0 0 0 0 0 0 0 0 0 0 0 0 0 0 0 0
4 82 0 0 40 83 100 40 100 98 29 5 62 100 95 32 61 93 86 100 94 100 100 100 100 96 100 100 22 16 5 1 0 0 0 0 0 0 0 0 0 0 0 0 0 0 0 0 0
5 15 45 0 5 100 100 23 100 100 96 6 75 46 30 69 5 96 88 98 33 54 100 100 100 100 100 73 7 5 3 0 0 0 0 0 0 0 0 0 0 0 0 0 0 0 0 0 0
5 0 0 2 5 32 100 7 98 98 70 5 77 51 7 33 90 56 5 38 26 100 100 100 100 90 96 36 5 30 5 0 5 0 0 0 0 0 0 0 0 0 0 0 0 0 0 0 0
5 1 0 0 34 5 92 48 5 30 62 45 75 67 7 37 64 5 0 7 5 56 100 100 94 97 24 4 9 29 3 2 1 0 0 5 0 0 0 0 0 0 0 0 0 0 0 0 0
19 4 0 0 71 92 100 56 0 5 100 5 5 18 5 4 0 5 4 4 100 100 96 100 100 100 74 100 100 100 100 2 0 0 0 0 5 0 0 0 0 0 0 0 0 0 0 0 0
5 0 0 0 5 100 100 100 0 0 65 4 5 0 73 9 0 0 2 0 87 99 100 100 100 100 100 100 100 100 18 5 2 5 0 0 6 1 0 0 0 0 0 0 0 0 0 0 0
3 0 3 34 92 100 100 99 4 0 0 1 5 5 37 5 6 17 0 5 100 99 95 71 100 100 100 100 100 98 93 97 61 25 10 25 8 10 5 2 0 0 0 0 0 0 0 0 0
0 3 12 100 100 100 100 93 96 31 2 0 3 5 3 5 72 75 95 32 56 78 87 93 71 98 57 100 100 100 100 100 50 34 82 19 5 3 3 6 0 4 2 0 0 0 0 0 0
1 100 49 100 100 100 100 11 59 100 14 0 6 5 7 83 98 43 4 93 100 28 0 5 100 100 87 100 100 98 93 76 100 96 64 28 13 2 0 5 5 2 6 5 0 0 0 0 0
4 77 88 97 100 100 99 5 85 55 27 0 5 4 5 89 100 100 100 49 43 82 67 100 100 95 100 100 100 100 100 100 100 100 100 100 92 80 15 24 6 1 0 0 0 0 0 0 1
0 2 2 21 95 100 89 53 5 20 3 5 5 5 4 96 100 100 100 100 99 66 100 100 100 100 100 100 100 100 100 100 100 100 100 100 100 100 94 5 31 74 5 0 0 0 0 1 33
0 0 0 0 11 9 5 99 5 5 5 3 35 75 29 100 100 100 100 100 100 100 100 100 100 100 100 100 100 100 100 100 100 100 100 100 100 100 100 22 6 100 91 3 0 0 0 2 5
0 0 0 0 2 5 2 49 98 87 2 5 5 81 100 99 100 100 100 100 100 100 100 100 100 100 100 100 100 100 100 100 100 100 100 100 100 98 100 51 88 76 13 10 7 1 1 26 30
0 0 0 0 0 0 2 6 100 100 58 73 5 73 97 100 98 54 58 42 100 100 100 100 100 100 100 100 100 100 100 100 100 100 100 100 99 100 100 100 100 100 100 100 100 98 68 60 32
0 0 0 0 0 0 3 1 100 99 100 67 47 1 92 100 100 99 78 33 100 100 100 100 100 100 100 100 100 100 100 100 100 100 100 100 95 100 100 100 100 100 100 100 94 89 100 100 61
0 0 0 0 0 0 0 4 74 100 37 100 99 4 2 99 100 100 100 83 100 100 100 100 100 100 100 100 100 100 100 100 100 100 100 100 100 100 100 58 82 83 100 100 100 100 100 100 95
5 1 0 0 0 0 0 0 5 100 6 98 81 4 0 7 100 100 8 76 72 80 78 100 100 100 100 100 100 100 100 100 100 100 100 100 100 100 100 100 100 100 100 100 100 100 100 100 100
35 6 0 0 0 0 0 0 0 51 67 20 100 32 4 0 75 100 100 84 61 99 100 72 100 100 100 100 100 100 100 100 100 100 100 100 100 100 100 81 86 100 100 100 100 100 100 100 99
100 97 2 0 0 0 0 0 0 0 60 31 66 99 48 5 4 100 100 99 15 100 100 83 6 100 100 100 100 100 100 100 100 100 100 100 100 100 100 91 100 100 84 59 99 100 85 98 100
100 16 0 0 0 4 0 4 0 5 0 3 36 100 35 100 39 8 100 100 93 55 5 66 95 94 100 100 100 100 100 100 100 100 100 100 100 100 55 13 100 100 100 80 96 83 98 99 48
100 30 1 0 4 2 4 2 0 16 0 0 0 83 92 72 99 92 100 100 94 7 5 56 44 75 93 100 100 100 100 100 100 100 100 100 100 100 100 82 80 100 97 96 73 89 88 98 32
92 5 0 0 0 19 100 57 0 2 4 4 18 4 21 7 18 100 95 6 5 49 25 5 98 11 14 40 100 100 100 100 100 100 100 100 100 100 100 100 76 68 98 78 100 95 100 100 100
100 5 5 17 72 97 73 11 93 92 94 45 9 54 99 16 4 20 7 5 5 28 100 71 49 100 29 36 100 100 100 100 100 100 100 100 100 98 64 100 80 95 23 61 84 74 100 100 100
18 24 100 96 5 55 3 6 100 98 98 100 3 1 4 5 11 32 71 36 5 57 100 58 96 96 60 42 7 95 100 100 100 100 99 100 54 49 25 66 98 48 89 100 73 74 100 100 92
100 100 82 5 5 100 100 96 100 77 100 100 99 78 69 100 55 82 100 98 87 100 100 100 92 99 72 76 92 68 100 65 76 100 74 71 57 84 89 84 75 100 100 98 100 100 100 57 99
100 100 9 0 0 100 100 98 36 100 100 100 100 94 41 32 14 100 100 100 100 100 84 60 99 100 100 100 100 94 42 91 15 24 1 12 63 95 76 70 71 100 100 89 100 46 97 99 100
100 5 0 0 3 2 72 18 100 44 56 100 100 100 100 95 98 100 100 100 100 100 91 60 5 67 96 70 75 100 42 100 100 100 100 100 100 62 95 99 100 100 76 99 95 91 100 100 45